This is the latest recevied weather packets stored in our database for station/object EA1CUE-WX. If no packets are shown the sender has not sent any weather packets the latest 10 day(s).
| Time | Temp. | Humidity | Pressure | Rain* | Wind** | Luminosity | Snow |
|---|---|---|---|---|---|---|---|
| 1787387286 | 17.78° C | 23% | 1013.4 hPa | 0 mm | - | - | - |
| 1787386987 | 17.78° C | 27% | 1013.4 hPa | 0 mm | - | - | - |
| 1787386687 | 17.78° C | 27% | 1013.5 hPa | 0 mm | - | - | - |
| 1787386387 | 17.78° C | 28% | 1013.5 hPa | 0 mm | - | - | - |
| 1787386087 | 18.33° C | 29% | 1013.4 hPa | 0 mm | - | - | - |
| 1787385786 | 18.33° C | 27% | 1013.6 hPa | 0 mm | - | - | - |
| 1787385487 | 18.33° C | 29% | 1013.5 hPa | 0 mm | - | - | - |
| 1787385187 | 18.33° C | 32% | 1013.7 hPa | 0 mm | - | - | - |
| 1787384887 | 18.89° C | 28% | 1013.6 hPa | 0 mm | - | - | - |
| 1787384587 | 18.89° C | 27% | 1013.8 hPa | 0 mm | - | - | - |
| 1787384287 | 18.33° C | 25% | 1013.8 hPa | 0 mm | - | - | - |
| 1787383987 | 18.33° C | 24% | 1013.9 hPa | 0 mm | - | - | - |
| 1787383687 | 18.33° C | 24% | 1014 hPa | 0 mm | - | - | - |
| 1787383387 | 18.33° C | 22% | 1013.9 hPa | 0 mm | - | - | - |
| 1787383087 | 17.78° C | 21% | 1014 hPa | 0 mm | - | - | - |
| 1787382787 | 17.78° C | 15% | 1014 hPa | 0 mm | - | - | - |
| 1787382487 | 17.78° C | 9% | 1014 hPa | 0 mm | - | - | - |
| 1787382187 | 16.67° C | 1% | 1014 hPa | 0 mm | - | - | - |
| 1787381887 | 16.67° C | 1% | 1014 hPa | 0 mm | - | - | - |
| 1787381587 | 16.11° C | 1% | 1014.1 hPa | 0 mm | - | - | - |
| 1787381287 | 15° C | 1% | 1014.1 hPa | 0 mm | - | - | - |
| 1787380987 | 15° C | 1% | 1014.1 hPa | 0 mm | - | - | - |
| 1787380687 | 13.89° C | 1% | 1014.1 hPa | 0 mm | - | - | - |
| 1787380387 | 13.33° C | 1% | 1014.2 hPa | 0 mm | - | - | - |
| 1787380087 | 12.78° C | 1% | 1014.2 hPa | 0 mm | - | - | - |
* Rain latest hour (hover to see other rain measurements)
** Current wind speed in m/s (hover to see current wind gust speed)